TimeCST,TemperatureF,Dew PointF,Humidity,Sea Level PressureIn,VisibilityMPH,Wind Direction,Wind SpeedMPH,Gust SpeedMPH,PrecipitationIn,Events,Conditions,WindDirDegrees,DateUTC
12:58 AM,41.7,16.9,37,30.09,10.0,SSW,15.0,24.2,N/A,,Clear,200,2013-11-14 06:58:00
1:58 AM,40.6,16.5,38,30.08,10.0,SSW,12.7,-,N/A,,Clear,200,2013-11-14 07:58:00
2:58 AM,40.6,16.5,38,30.06,10.0,SSW,12.7,-,N/A,,Clear,200,2013-11-14 08:58:00
3:58 AM,40.6,16.5,38,30.05,10.0,SSW,11.5,-,N/A,,Clear,210,2013-11-14 09:58:00
4:58 AM,40.6,17.8,40,30.03,10.0,SSW,13.8,21.9,N/A,,Clear,210,2013-11-14 10:58:00
5:58 AM,39.0,20.1,47,30.02,10.0,SSW,5.8,-,N/A,,Clear,200,2013-11-14 11:58:00
6:58 AM,38.8,21.9,51,30.01,10.0,SSW,15.0,21.9,N/A,,Clear,200,2013-11-14 12:58:00
7:58 AM,39.4,22.8,52,30.03,10.0,SSW,10.4,18.4,N/A,,Clear,210,2013-11-14 13:58:00
8:56 AM,42.8,23.0,46,30.02,10.0,SSW,16.1,23.0,N/A,,Clear,210,2013-11-14 14:56:00
9:56 AM,46.4,23.0,40,30.01,10.0,SSW,18.4,24.2,N/A,,Clear,200,2013-11-14 15:56:00
10:58 AM,49.8,23.0,35,30.02,10.0,SW,17.3,-,N/A,,Clear,220,2013-11-14 16:58:00
11:58 AM,54.1,25.0,32,29.99,10.0,SSW,13.8,-,N/A,,Clear,210,2013-11-14 17:58:00
12:58 PM,56.7,26.8,32,29.95,10.0,SSW,16.1,-,N/A,,Clear,210,2013-11-14 18:58:00
1:58 PM,55.6,27.9,35,29.94,10.0,SW,11.5,-,N/A,,Clear,220,2013-11-14 19:58:00
2:58 PM,58.3,28.9,33,29.92,10.0,South,15.0,-,N/A,,Scattered Clouds,190,2013-11-14 20:58:00
3:58 PM,56.3,29.5,36,29.93,10.0,SW,9.2,-,N/A,,Partly Cloudy,220,2013-11-14 21:58:00
4:58 PM,53.2,30.7,42,29.94,10.0,SW,5.8,-,N/A,,Clear,220,2013-11-14 22:58:00
5:58 PM,49.6,30.2,47,29.94,10.0,SSW,2.3,-,N/A,,Clear,200,2013-11-14 23:58:00
6:58 PM,45.0,31.1,58,29.94,10.0,Calm,Calm,-,N/A,,Clear,0,2013-11-15 00:58:00
7:58 PM,44.1,30.9,60,29.95,10.0,Calm,Calm,-,N/A,,Clear,0,2013-11-15 01:58:00
8:58 PM,42.6,31.6,65,29.95,10.0,WSW,4.6,-,N/A,,Clear,250,2013-11-15 02:58:00
9:58 PM,40.6,30.0,66,29.95,10.0,WSW,4.6,-,N/A,,Clear,240,2013-11-15 03:58:00
10:58 PM,40.1,28.9,64,29.95,10.0,Variable,1.2,-,N/A,,Clear,0,2013-11-15 04:58:00
11:58 PM,40.1,28.9,64,29.94,10.0,SW,3.5,-,N/A,,Clear,220,2013-11-15 05:58:00